W8WLC-15 Weather Reports


Display with metric or nautical units.
time (UTC)temp
F
wind
direction
speed
MPH
gust
MPH
rain 1hr
in
rain 24hr
in
rain mn
in
humidity
%
barometer
mb
20231128103523 20 309 12.0 17.0 0.00 0.00 0.00 87 1010.5
20231128102522 20 309 12.0 18.0 0.00 0.00 0.00 88 1010.3
20231128101522 20 310 11.0 16.0 0.00 0.00 0.00 88 1010.2
20231128100523 20 318 8.0 17.0 0.00 0.00 0.00 89 1010.0
20231128095522 20 319 9.0 18.0 0.00 0.00 0.00 89 1009.9
20231128094522 20 299 12.0 19.0 0.00 0.00 0.00 89 1009.7
20231128093522 20 309 11.0 18.0 0.00 0.00 0.00 90 1009.6
20231128092522 20 307 12.0 18.0 0.00 0.00 0.00 90 1009.5
20231128091522 20 297 10.0 19.0 0.00 0.00 0.00 91 1009.3
20231128090522 20 306 12.0 19.0 0.00 0.00 0.00 91 1009.4
20231128085522 20 301 12.0 18.0 0.00 0.00 0.00 91 1009.3
20231128084522 20 304 11.0 17.0 0.00 0.00 0.00 91 1009.2
20231128083522 20 302 12.0 18.0 0.00 0.00 0.00 91 1009.2
20231128082522 20 298 13.0 19.0 0.00 0.00 0.00 90 1009.1
20231128081522 20 297 15.0 22.0 0.00 0.00 0.00 90 1009.0
20231128080523 20 294 15.0 21.0 0.00 0.00 0.00 89 1009.0
20231128075522 20 290 14.0 26.0 0.00 0.00 0.00 89 1008.9
20231128074522 20 296 20.0 30.0 0.00 0.00 0.00 87 1008.7
20231128073523 20 299 15.0 21.0 0.00 0.00 0.00 87 1008.6
20231128072522 20 293 14.0 20.0 0.00 0.00 0.00 87 1008.5
20231128071522 20 293 13.0 21.0 0.00 0.00 0.00 88 1008.5
20231128070523 20 298 13.0 19.0 0.00 0.00 0.00 88 1008.3
20231128065522 19 291 12.0 17.0 0.00 0.00 0.00 88 1008.3
20231128064522 19 284 11.0 17.0 0.00 0.00 0.00 88 1008.2
20231128063523 19 285 9.0 17.0 0.00 0.00 0.00 88 1008.2
20231128062522 19 286 10.0 16.0 0.00 0.00 0.00 89 1008.2
20231128061522 19 289 10.0 16.0 0.00 0.00 0.00 89 1008.2
20231128060523 18 279 8.0 14.0 0.00 0.00 0.00 89 1008.1
20231128055522 18 284 9.0 14.0 0.00 0.00 0.00 89 1008.1
20231128054522 18 282 8.0 15.0 0.00 0.00 0.00 89 1008.1
20231128053522 18 282 9.0 15.0 0.00 0.00 0.00 89 1008.0
20231128052522 18 281 9.0 14.0 0.00 0.00 0.00 88 1008.1
20231128051522 17 284 9.0 14.0 0.00 0.00 0.00 88 1008.0
20231128050522 17 276 8.0 18.0 0.00 0.00 0.00 88 1007.9
20231128045522 18 281 9.0 15.0 0.00 0.00 0.00 87 1007.9
20231128044522 18 280 8.0 14.0 0.00 0.00 0.00 87 1007.9
20231128043522 18 277 8.0 13.0 0.00 0.00 0.00 87 1007.8
20231128042522 18 276 7.0 13.0 0.00 0.00 0.00 86 1007.8
20231128041522 17 275 7.0 11.0 0.00 0.00 0.00 86 1007.7
20231128040522 18 278 7.0 12.0 0.00 0.00 0.00 85 1007.8
20231128035522 18 282 8.0 15.0 0.00 0.00 0.00 85 1007.7
20231128034522 18 277 7.0 12.0 0.00 0.00 0.00 84 1007.7
20231128033523 18 278 8.0 16.0 0.00 0.00 0.00 83 1007.7
20231128032522 18 280 9.0 19.0 0.00 0.00 0.00 83 1007.7
20231128031522 18 284 9.0 17.0 0.00 0.00 0.00 82 1007.6
20231128030522 19 288 15.0 21.0 0.00 0.00 0.00 81 1007.6
20231128025522 19 283 10.0 21.0 0.00 0.00 0.00 80 1007.6
20231128024522 19 285 14.0 24.0 0.00 0.00 0.00 78 1007.6
20231128023522 19 294 14.0 24.0 0.00 0.00 0.00 77 1007.6
20231128022522 19 289 15.0 22.0 0.00 0.00 0.00 76 1007.6
20231128021522 19 286 10.0 23.0 0.00 0.00 0.00 76 1007.6
20231128020523 19 291 12.0 18.0 0.00 0.00 0.00 76 1007.6
20231128015522 19 292 15.0 21.0 0.00 0.00 0.00 75 1007.6
20231128014522 20 287 15.0 22.0 0.00 0.00 0.00 75 1007.6
20231128013523 20 290 16.0 20.0 0.00 0.00 0.00 75 1007.6
20231128012522 20 291 14.0 22.0 0.00 0.00 0.00 74 1007.5
20231128011522 20 294 14.0 23.0 0.00 0.00 0.00 74 1007.5
20231128010522 21 295 15.0 25.0 0.00 0.00 0.00 72 1007.4
20231128005522 21 291 14.0 18.0 0.00 0.00 0.00 75 1007.5
20231128004522 21 292 13.0 19.0 0.00 0.00 0.00 75 1007.5
20231128003523 21 293 13.0 20.0 0.00 0.01 0.00 74 1007.5
20231128002522 21 296 16.0 27.0 0.00 0.01 0.00 73 1007.4
20231128001522 20 292 13.0 19.0 0.00 0.01 0.00 75 1007.3
20231128000523 21 289 13.0 18.0 0.00 0.01 0.00 75 1007.2
20231127235522 21 301 14.0 22.0 0.00 0.01 0.00 74 1007.2
20231127234522 21 285 14.0 20.0 0.00 0.01 0.00 77 1007.1
20231127233523 21 279 9.0 17.0 0.00 0.01 0.00 79 1007.0
20231127232522 21 279 11.0 18.0 0.00 0.01 0.00 80 1006.9
20231127231522 21 294 12.0 19.0 0.00 0.01 0.00 81 1006.9
20231127230523 21 295 13.0 18.0 0.00 0.01 0.00 81 1006.9
20231127225522 21 288 12.0 18.0 0.00 0.01 0.00 80 1006.8
20231127224522 21 282 9.0 17.0 0.00 0.01 0.00 80 1006.7
20231127223523 21 287 11.0 18.0 0.00 0.01 0.00 79 1006.5
20231127222522 21 293 13.0 17.0 0.00 0.01 0.00 79 1006.5
20231127221522 21 294 12.0 20.0 0.00 0.01 0.00 81 1006.4
20231127220523 21 295 12.0 22.0 0.00 0.01 0.00 83 1006.2
20231127215522 20 287 13.0 26.0 0.00 0.01 0.00 84 1006.1
20231127214522 21 292 14.0 22.0 0.00 0.01 0.00 78 1006.2
20231127213523 21 287 13.0 20.0 0.00 0.01 0.00 77 1006.1
20231127212522 21 305 12.0 16.0 0.00 0.01 0.00 77 1005.9
20231127211522 21 293 13.0 17.0 0.00 0.01 0.00 79 1005.7
20231127210524 22 318 10.0 16.0 0.00 0.01 0.00 80 1005.7
20231127205522 22 301 12.0 19.0 0.00 0.01 0.00 79 1005.6
20231127204522 22 302 12.0 17.0 0.00 0.01 0.00 78 1005.5
20231127203522 22 323 8.0 19.0 0.00 0.01 0.00 77 1005.3
20231127202522 22 306 12.0 19.0 0.00 0.01 0.00 76 1005.2
20231127201522 22 315 12.0 22.0 0.00 0.01 0.00 76 1005.1
20231127200522 23 311 11.0 19.0 0.00 0.01 0.00 76 1004.9
20231127195522 23 315 10.0 22.0 0.00 0.01 0.00 72 1004.8
20231127194522 23 284 9.0 13.0 0.00 0.01 0.00 74 1004.6
20231127193523 23 295 18.0 26.0 0.00 0.01 0.00 73 1004.6
20231127192522 23 286 14.0 23.0 0.00 0.01 0.00 74 1004.5
20231127191522 23 295 15.0 27.0 0.00 0.01 0.00 74 1004.4
20231127190523 23 294 13.0 21.0 0.00 0.01 0.00 74 1004.4
20231127185522 23 310 10.0 19.0 0.00 0.01 0.00 73 1004.5
20231127184522 24 307 13.0 18.0 0.00 0.01 0.00 72 1004.4
20231127183523 23 309 12.0 19.0 0.00 0.01 0.00 75 1004.3
20231127182522 23 304 11.0 17.0 0.00 0.01 0.00 75 1004.3
20231127181522 23 322 11.0 18.0 0.00 0.01 0.00 75 1004.2
20231127180523 23 297 16.0 24.0 0.00 0.01 0.00 75 1004.2
20231127175522 23 315 13.0 27.0 0.00 0.01 0.00 80 1004.2
20231127174522 23 309 7.0 12.0 0.00 0.01 0.00 88 1004.3
20231127173523 22 310 8.0 17.0 0.00 0.01 0.00 88 1004.2
20231127172522 22 300 15.0 25.0 0.00 0.01 0.00 88 1004.2
20231127171522 23 289 11.0 15.0 0.00 0.01 0.00 89 1004.1
20231127170523 23 279 7.0 13.0 0.00 0.01 0.00 88 1004.1
20231127165522 23 268 4.0 9.0 0.00 0.01 0.00 88 1004.2
20231127164522 23 281 6.0 15.0 0.00 0.01 0.00 87 1004.3
20231127163523 23 275 6.0 11.0 0.00 0.01 0.00 87 1004.4
20231127162522 22 290 7.0 16.0 0.00 0.01 0.00 85 1004.6
20231127161522 23 294 10.0 14.0 0.00 0.01 0.00 80 1004.7
20231127160523 24 282 8.0 16.0 0.00 0.01 0.00 78 1004.5
20231127155522 24 304 9.0 19.0 0.00 0.01 0.00 75 1004.6
20231127154522 24 302 8.0 16.0 0.00 0.01 0.00 75 1004.4
20231127153523 23 298 16.0 25.0 0.00 0.01 0.00 73 1004.5
20231127152522 24 300 16.0 22.0 0.00 0.01 0.00 73 1004.5
20231127151522 24 287 15.0 20.0 0.00 0.01 0.00 76 1004.4
20231127150523 24 287 13.0 19.0 0.00 0.01 0.00 78 1004.4
20231127145522 24 293 10.0 17.0 0.00 0.01 0.00 78 1004.3
20231127144522 24 286 12.0 18.0 0.00 0.01 0.00 78 1004.3
20231127143523 24 299 12.0 17.0 0.00 0.01 0.00 77 1004.1
20231127142522 24 293 12.0 17.0 0.00 0.01 0.00 79 1004.0
20231127141522 24 297 11.0 17.0 0.00 0.01 0.00 79 1004.0
20231127140523 24 305 10.0 19.0 0.00 0.01 0.00 78 1004.0
20231127135522 24 294 11.0 16.0 0.00 0.01 0.00 79 1003.8
20231127134522 24 300 10.0 17.0 0.00 0.01 0.00 79 1003.7
20231127133523 24 304 11.0 20.0 0.00 0.01 0.00 80 1003.6
20231127132522 24 305 10.0 15.0 0.00 0.01 0.00 81 1003.6
20231127131522 24 292 11.0 16.0 0.00 0.01 0.00 81 1003.6
20231127130523 24 302 11.0 19.0 0.00 0.01 0.00 82 1003.5
20231127125522 24 290 13.0 21.0 0.00 0.01 0.00 86 1003.4
20231127124522 25 291 13.0 20.0 0.00 0.01 0.00 89 1003.5
20231127123522 24 282 10.0 17.0 0.00 0.01 0.00 90 1003.3
20231127122522 24 274 6.0 14.0 0.00 0.01 0.00 90 1003.3
20231127121522 24 279 6.0 12.0 0.00 0.01 0.00 90 1003.2
20231127120523 24 280 7.0 14.0 0.00 0.01 0.00 89 1003.1
20231127115522 25 280 7.0 19.0 0.00 0.01 0.00 88 1002.9
20231127114522 25 285 12.0 17.0 0.00 0.01 0.00 87 1002.9
20231127113523 25 295 10.0 15.0 0.00 0.01 0.00 86 1002.8
20231127112522 26 296 9.0 17.0 0.00 0.01 0.00 86 1002.6
20231127111522 26 293 12.0 18.0 0.00 0.01 0.00 87 1002.6
20231127110523 26 293 10.0 15.0 0.00 0.01 0.00 88 1002.5
20231127105522 26 288 9.0 12.0 0.00 0.01 0.00 88 1002.5
20231127104522 26 297 11.0 18.0 0.00 0.01 0.00 87 1002.3